Your browser is no longer supported. Please, upgrade your browser.
Filter
Ticker Owner Relationship Date Transaction Cost #Shares Value ($) #Shares Total SEC Form 4
APPSSTERLING MICHELLE MDirectorNov 12Buy7.4513,640101,61813,640Nov 14 07:36 PM
NICKPeterson Adam KDirectorNov 14Buy9.265,07346,9761,944,812Nov 14 07:36 PM
NICKPeterson Adam KDirectorNov 13Buy9.0115,679141,2681,939,739Nov 14 07:36 PM
MWKSarig Yaniv ZionSee RemarksNov 13Buy6.221,0006,220899,601Nov 14 07:28 PM
NCSMStromquist MartyPresidentNov 13Buy2.2512,20327,457125,422Nov 14 06:56 PM
ETLong Thomas EChief Financial OfficerNov 14Buy11.1518,000200,646517,698Nov 14 06:25 PM
SAFESUGARMAN JAYChairman and CEONov 14Buy35.7770025,03930,764Nov 14 06:10 PM
REZIRYDER ROBERT PInterim CFONov 12Buy8.8122,900201,74922,900Nov 14 06:00 PM
HSACWONG RODERICKChief Executive OfficerNov 14Buy10.1713,000132,210156,500Nov 14 05:51 PM
HSACWONG RODERICKChief Executive OfficerNov 13Buy10.1713,000132,210143,500Nov 14 05:51 PM
HSACWONG RODERICKChief Executive OfficerNov 12Buy10.17100,0001,017,000130,500Nov 14 05:51 PM
VERIGRAZIADIO G LOUIS IIIDirectorNov 12Buy2.7351,272139,819187,572Nov 14 05:50 PM
TRUPFerracone Robin ADirectorNov 12Buy31.5010,000314,98064,056Nov 14 05:39 PM
IPWRBELL LON EPresident and CEONov 13Buy2.48201,914500,000212,881Nov 14 05:32 PM
MTDRForan Joseph WmChairman and CEONov 14Buy14.3010,000143,000375,984Nov 14 05:30 PM
XAIRLee YooriDirectorJun 03Buy5.154,85525,0037,197Nov 14 05:12 PM
CHKBUERGLER WILLIAM MSVP & Chief Accounting OfficerNov 14Buy0.7170,68150,05670,681Nov 14 05:07 PM
AGOFeldstein Andrew TChief Investment OfficerNov 13Buy48.3112,611609,237354,788Nov 14 05:04 PM
AGOFeldstein Andrew TChief Investment OfficerNov 12Buy48.3012,611609,111342,177Nov 14 05:04 PM
BXBlackstone Clarus GP L.P.10% OwnerNov 12Buy12.00250,0003,000,000652,324Nov 14 05:00 PM
UGIPerreault RogerEVP, Global LPGNov 14Buy42.452,357100,06125,481Nov 14 05:00 PM
TNETAGI-T, L.P.DirectorNov 13Buy54.5520,0001,091,0002,912,187Nov 14 04:35 PM
TNETAGI-T, L.P.DirectorNov 12Buy54.3441,0002,227,9402,892,187Nov 14 04:35 PM
CEIXMILLS JOHN TDirectorNov 12Buy12.554,00050,20042,057Nov 14 04:31 PM
NATRWYNNEFIELD PARTNERS SMALL CAP 10% OwnerNov 13Buy9.329,49988,5261,593,449Nov 14 04:26 PM
NATRWYNNEFIELD PARTNERS SMALL CAP 10% OwnerNov 13Buy9.324,31240,186724,936Nov 14 04:26 PM
NATRWYNNEFIELD PARTNERS SMALL CAP 10% OwnerNov 12Buy9.2411,103102,5921,583,950Nov 14 04:26 PM
NATRWYNNEFIELD PARTNERS SMALL CAP 10% OwnerNov 12Buy9.245,04046,570720,624Nov 14 04:26 PM
BVSNESW Capital, LLC10% OwnerNov 13Buy2.502,6996,7391,051,757Nov 14 04:24 PM
BVSNESW Capital, LLC10% OwnerNov 12Buy2.463,7519,2271,049,058Nov 14 04:24 PM
ARVNRatcliffe LiamDirectorNov 12Buy22.00680,00014,960,000680,000Nov 14 04:23 PM
ALRNBailey Jeffrey AllenDirectorNov 12Buy0.5319,89410,54419,894Nov 14 04:23 PM
MCHXEdenbrook Capital, LLC10% OwnerNov 14Buy4.1541,400171,6435,103,684Nov 14 04:21 PM
MCHXEdenbrook Capital, LLC10% OwnerNov 12Buy4.1320,60085,1275,062,284Nov 14 04:21 PM
XAIRLisi Steven A.CEO, ChairmanNov 13Buy4.0912,00049,080611,318Nov 14 04:15 PM
XAIRLisi Steven A.CEO, ChairmanNov 12Buy4.078,00032,560599,318Nov 14 04:15 PM
XAIRLisi Steven A.CEO, ChairmanNov 11Buy4.1910,00041,900591,318Nov 14 04:15 PM
XAIRLisi Steven A.CEO, ChairmanJun 03Buy5.1558,253300,003581,318Nov 14 04:15 PM
XAIRAvniel AmirPresident, COOJun 03Buy5.159,70950,001462,324Nov 14 04:15 PM
CRVSMILLER RICHARD A MDPresident and CEONov 13Buy3.0014,73644,2401,178,515Nov 14 04:14 PM
CRVSMILLER RICHARD A MDPresident and CEONov 12Buy2.902727891,163,779Nov 14 04:14 PM
SBPHFreve JonathanCFO & TreasurerNov 14Buy3.045,00015,20017,482Nov 14 04:08 PM
AGIOCELGENE CORP /DE/10% OwnerNov 12Buy31.00403,22512,499,9751,777,824Nov 14 04:06 PM
OTELMcCall Stephen PhillipDirectorNov 12Buy11.6090010,4409,893Nov 14 04:05 PM
HCIBurks Robert WayneDirectorNov 12Buy45.004,400197,9964,400Nov 14 03:54 PM
NICKRoyal Jeffrey CDirectorNov 14Buy8.662,43121,05213,765Nov 14 02:41 PM
PPRSaba Capital Management, L.P.10% OwnerNov 13Buy4.799,05643,37822,800,580Nov 14 01:42 PM
PPRSaba Capital Management, L.P.10% OwnerNov 12Buy4.85166,128805,72122,791,524Nov 14 01:42 PM
ORIKOVALESKI CHARLES JDirectorNov 13Buy22.682004,5367,186Nov 14 12:55 PM
NOVAAndrew Anne SDirectorNov 13Buy9.9115,000148,70615,000Nov 14 12:49 PM
HMGWeiner Maurice AChairman, CEO and PresidentNov 13Buy13.703,00041,10057,530Nov 14 12:38 PM
SCLKabbes DavidVP GC & SecretaryNov 13Buy97.5082180,048821Nov 14 12:32 PM
TPLHORIZON KINETICS ASSET MANAGEM10% OwnerNov 13Buy664.372315,281313,992Nov 14 12:04 PM
SJWVan Valer Robert ADirectorNov 12Buy67.217,500504,11093,129Nov 14 11:15 AM
OVBCBARNITZ ANNA PDirectorNov 13Buy36.46411,5005,977Nov 14 11:08 AM
RVPSHAW THOMAS JPresident and CEONov 13Buy1.302,0002,59414,438,396Nov 14 10:18 AM
BKEPWoodward D AndrewCFONov 13Buy1.1450,00056,90696,168Nov 14 09:44 AM
TURNRendino KevinChairman and CEONov 13Buy2.195,19511,377642,214Nov 14 09:08 AM
SBPHDriscoll Martin JPresident and CEONov 13Buy2.835,00014,15090,400Nov 14 08:46 AM
OBLNPlovanic William J.President & CEONov 12Buy1.6665,000107,822106,806Nov 14 08:30 AM
ESXBWILLIAMS ROBIN TRAYWICKDirectorNov 08Buy8.605004,30070,328Nov 14 08:07 AM
GTSCHAFEY DAVID H JRDirectorNov 12Buy18.475,37599,27622,361Nov 14 08:06 AM
OPKFROST PHILLIP MD ET ALCEO & ChairmanNov 13Buy1.4250,00071,191167,684,443Nov 14 07:08 AM
GDENMarnell Anthony A. IIIDirectorNov 13Buy16.8564,0951,080,001102,774Nov 14 06:06 AM
STKLEnnen JosephCEONov 11Buy2.6325,00065,725364,000Nov 13 08:54 PM
PRTYCreekmuir William S.DirectorNov 11Buy2.3225,74059,71755,471Nov 13 08:53 PM
CDEVSHAPIRO STEVEN JDirectorNov 11Buy3.4525,00086,27559,567Nov 13 08:13 PM
CDEVSHAPIRO STEVEN JDirectorNov 08Buy3.3925,00084,85034,567Nov 13 08:13 PM
CDEVGlyphis George S.VP, Chief Financial OfficerNov 13Buy3.299,50031,237530,695Nov 13 08:09 PM
CDEVGlyphis George S.VP, Chief Financial OfficerNov 12Buy3.363,00010,069521,195Nov 13 08:09 PM
CDEVGlyphis George S.VP, Chief Financial OfficerNov 08Buy3.3725,00084,265518,195Nov 13 08:09 PM
UBERSUGAR RONALD DDirectorNov 08Buy27.2035,000952,000157,489Nov 13 08:06 PM
PBFInversora Carso, S.A. de C.V.Add'l Rep. Persons-see Ex.99-1Nov 11Buy32.565,028163,69317,561,371Nov 13 08:05 PM
HTBKDiNapoli Jason PhilipDirectorNov 12Buy12.445,00062,18527,261Nov 13 07:53 PM
IPICONSIDINE TERRYDirectorNov 13Buy2.2412,47227,937138,720Nov 13 07:33 PM
IPICONSIDINE TERRYDirectorNov 12Buy2.3967,915162,317126,248Nov 13 07:33 PM
IPICONSIDINE TERRYDirectorNov 11Buy2.4319,61347,66058,333Nov 13 07:33 PM
GTEGMT CAPITAL CORP10% OwnerNov 08Buy1.05287,709302,09479,974,486Nov 13 07:30 PM
GTEGMT CAPITAL CORP10% OwnerNov 07Buy1.071,035,7001,108,19979,686,777Nov 13 07:30 PM
GTEGMT CAPITAL CORP10% OwnerNov 06Buy1.30753,491979,53878,651,077Nov 13 07:30 PM
GTEGMT CAPITAL CORP10% OwnerOct 24Buy1.14307,200350,20877,897,586Nov 13 07:30 PM
GTEGMT CAPITAL CORP10% OwnerOct 23Buy1.14419,700478,45877,590,386Nov 13 07:30 PM
CEMIPotthoff John GaryDirectorNov 11Buy4.4410,00044,40037,772Nov 13 07:21 PM
CASAHayashi Michael TDirectorNov 11Buy3.443,00010,32010,061Nov 13 07:08 PM
KZRBelsky MarcCFONov 13Buy2.768002,2072,000Nov 13 07:07 PM
CODISABO ELIASNov 13Buy22.0218,334403,629109,601Nov 13 07:02 PM
CODISABO ELIASNov 12Buy22.7118,333416,34291,267Nov 13 07:02 PM
CODISABO ELIASNov 11Buy22.2417,934398,90272,934Nov 13 07:02 PM
SWXBOUGHNER ROBERT LDirectorNov 13Buy76.495,000382,43743,581Nov 13 06:46 PM
SWXDaily Paul MExecutive OfficerNov 12Buy75.4032524,505906Nov 13 06:46 PM
APDNMontgomery William W5% OwnerNov 13Buy5.2475,000393,000225,774Nov 13 06:46 PM
SAFESUGARMAN JAYChairman and CEONov 13Buy35.1030010,53030,064Nov 13 06:43 PM
BTNFundamental Global Investors, DirectorNov 13Buy2.834,60013,0181,497,388Nov 13 06:22 PM
XAIRBECK DOUGLASChief Financial OfficerNov 13Buy4.021,2424,99313,891Nov 13 06:20 PM
XAIRBECK DOUGLASChief Financial OfficerNov 12Buy3.986892,74212,649Nov 13 06:20 PM
XAIRBECK DOUGLASChief Financial OfficerNov 08Buy4.092,2509,20311,960Nov 13 06:20 PM
XAIRBECK DOUGLASCFOJun 03Buy5.159,71050,0079,710Nov 13 06:08 PM
TRNBoze Brandon BDirectorNov 13Buy21.28236,8005,039,10424,889,198Nov 13 05:58 PM
TRNBoze Brandon BDirectorNov 12Buy21.60290,7006,279,12024,652,398Nov 13 05:58 PM
TRNBoze Brandon BDirectorNov 11Buy21.53150,0003,229,50024,361,698Nov 13 05:58 PM
MVISMulligan PerryCEONov 11Buy0.7533,00024,710755,207Nov 13 05:58 PM
MMACFALCONE MICHAEL LChief Exectuive OfficerNov 12Buy32.572197,132333,535Nov 13 05:50 PM
CCIMARTIN J LANDISDirectorNov 12Buy130.619,9001,293,0356,000Nov 13 05:47 PM
CCIMARTIN J LANDISDirectorNov 12Buy130.621,000130,622131,617Nov 13 05:47 PM
BHBIGLARI, SARDARChairman and CEONov 13Buy579.87605350,8213,101Nov 13 05:41 PM
BHBIGLARI, SARDARChairman and CEONov 12Buy568.0810559,6482,496Nov 13 05:41 PM
BHBIGLARI, SARDARChairman and CEONov 11Buy551.85420231,7772,391Nov 13 05:41 PM
TWOSIERING THOMASCEO & PresidentNov 12Buy14.424,00057,680749,706Nov 13 05:39 PM
TDCCulhane MarkChief Financial OfficerNov 11Buy26.007,800202,76914,850Nov 13 05:37 PM
TDCCulhane MarkChief Financial OfficerNov 11Buy26.001,95050,69264,035Nov 13 05:37 PM
TDCEtherington MartynChief Marketing OfficerNov 12Buy26.434,300113,64929,256Nov 13 05:36 PM
NGMSvennilson PeterDirectorNov 11Buy12.001518016,420,829Nov 13 05:35 PM
NGMGOEDDEL DAVID VDirectorNov 11Buy12.001518016,610,829Nov 13 05:31 PM
NGMCOLUMN GROUP L P10% OwnerNov 11Buy12.0015180253,922Nov 13 05:29 PM
NGMCOLUMN GROUP L P10% OwnerNov 11Buy12.0015180253,922Nov 13 05:27 PM
MNTXYu Laura RuoruChief Financial OfficerNov 13Buy6.175,00030,84016,695Nov 13 05:19 PM
GTSGarcia Rodriguez RobertoPresident & CEONov 12Buy18.401,33824,619182,237Nov 13 05:18 PM
TMDXWeill DavidDirectorNov 11Buy17.0010,000170,00010,000Nov 13 05:05 PM
PLTDEXHEIMER BRIAN SDirectorNov 11Buy25.893,69995,76379,336Nov 13 05:04 PM
PLTDEXHEIMER BRIAN SDirectorNov 11Buy25.6110,177260,61875,637Nov 13 05:02 PM
APTSDUPREE DANIEL MChief Executive OfficerNov 11Buy13.0710,000130,700116,353Nov 13 04:52 PM
EYETAYLOR THOMAS VDirectorNov 11Buy27.673,61099,8919,339Nov 13 04:44 PM
HTSHAH HASU PChairman of the BoardNov 12Buy14.093,50049,329203,618Nov 13 04:37 PM
CLNCTraenkle Kevin P.CEO AND PRESIDENTNov 13Buy11.9550,000597,500274,877Nov 13 04:34 PM
CLNCTraenkle Kevin P.CEO AND PRESIDENTNov 12Buy11.9150,000595,500224,877Nov 13 04:34 PM
KDPDeNooyer Mary BethChief Human Resources OfficerNov 12Buy29.056,000174,27184,000Nov 13 04:33 PM
KODKVandagriff RandyVice PresidentNov 12Buy2.484,0009,92012,205Nov 13 04:33 PM
HBIOLOY BERTRANDDirectorNov 13Buy2.526,10015,372193,493Nov 13 04:30 PM
HBIOLOY BERTRANDDirectorNov 12Buy2.5110,57926,553187,393Nov 13 04:30 PM
HBIOLOY BERTRANDDirectorNov 11Buy2.5912,85533,294176,814Nov 13 04:30 PM
HBIOLOY BERTRANDDirectorNov 08Buy2.646,61617,466163,959Nov 13 04:30 PM
CMRXMIDDLETON FRED ADirectorNov 13Buy1.8230,00054,567147,523Nov 13 04:14 PM
CMRXMIDDLETON FRED ADirectorNov 11Buy1.6620,00033,190117,523Nov 13 04:14 PM
RSTLOGUE GEORGE ADirectorNov 11Buy14.531,00014,5303,600Nov 13 04:14 PM
CRYMackin James PPresident & CEONov 13Buy23.475,000117,355225,731Nov 13 04:14 PM
JRVRAbram J AdamChief Executive OfficerNov 12Buy35.4612,700450,388441,310Nov 13 04:12 PM
JRVRAbram J AdamChief Executive OfficerNov 11Buy35.001,58555,469428,610Nov 13 04:12 PM
SMPLSCALZO JOSEPHCEO and PresidentNov 11Buy24.4216,330398,779465,683Nov 13 04:10 PM
SMPLKILTS JAMES MDirectorNov 08Buy23.823137,456667,217Nov 13 04:09 PM
HCRRasmus Robert E.CEO and DirectorNov 12Buy1.0250,00050,940216,044Nov 13 04:08 PM
HBIOGreen James WChief Executive OfficerNov 11Buy2.6110,00026,1001,535,404Nov 13 04:06 PM
FCCYPENTA CARMEN MDirectorNov 08Buy19.535009,7658,815Nov 13 04:03 PM
SENEAWOLCOTT ARTHUR SChairmanNov 11Buy35.001,00035,0009,551Nov 13 04:00 PM
ARNCALBAUGH JAMES FDirectorNov 12Buy29.505,000147,52329,486Nov 13 03:53 PM
FFINDenny Michael B.DirectorNov 13Buy34.771,50052,15547,238Nov 13 03:18 PM
USPHChapman Harry SDirectorNov 11Buy117.002,400280,80046,400Nov 13 01:59 PM
MCBCHerr Robert LDirectorNov 12Buy10.812502,70317,474Nov 13 01:55 PM
MCYLittle Joshua EricDirectorNov 12Buy48.9525012,238750Nov 13 01:54 PM
DBXHouston AndrewChief Executive OfficerNov 11Buy19.14500,0009,568,900500,000Nov 13 01:44 PM
BXCAveritt Alexander SChief Operating OfficerNov 13Buy14.201,50021,3004,442Nov 13 01:02 PM
ATGEBoden Holland Katherine AliceGr Pres Medical and HealthcareNov 11Buy31.992,00063,98716,367Nov 13 12:23 PM
PKBKPANTILIONE VITO SPresidentNov 12Buy24.1080019,280237,178Nov 13 11:26 AM
RVPSHAW THOMAS JPresident and CEONov 12Buy1.344,0005,36014,436,396Nov 13 11:18 AM
ECAMcKenzie Margaret AnneDirectorNov 12Buy4.5212,00054,24012,000Nov 13 11:17 AM
ECAMcKenzie Margaret AnneDirectorNov 12Buy4.5310,00045,30032,000Nov 13 11:17 AM
TPLHORIZON KINETICS ASSET MANAGEM10% OwnerNov 12Buy646.753321,343313,969Nov 13 11:10 AM
RIVOakes John S.DirectorNov 12Buy16.204296,9501,967Nov 13 10:58 AM
VIVOPHILLIPS DAVIDDirectorNov 12Buy8.0610,00080,62648,616Nov 13 10:49 AM
CRBPWhite BarbaraChief Medical OfficerNov 12Buy4.383,42414,992190,611Nov 13 10:00 AM
MCHXARENDS MICHAEL ACo-CEO & CFONov 12Buy4.18125523789,879Nov 13 09:20 AM
TURNBigelow Robert E IIIVP, Head of Fund DevelopmentNov 12Buy2.211,5003,319171,950Nov 13 09:11 AM
CLSDDeignan Charles A.Chief Financial OfficerNov 12Buy1.147,5008,550203,856Nov 13 08:38 AM
PETQNewland JohnChief Financial OfficerNov 12Buy22.2844,000980,14844,000Nov 13 08:17 AM
OPKFROST PHILLIP MD ET ALCEO & ChairmanNov 12Buy1.44200,000288,124167,634,443Nov 13 06:04 AM
SCORFULLER DALE LDirectorNov 08Buy3.2310,00032,30033,470Nov 12 09:22 PM
SCORFULLER DALE LDirectorNov 07Buy3.2210,00032,20023,470Nov 12 09:22 PM
SCORRosenthal Brent DavidDirectorNov 07Buy3.1946,500148,515140,804Nov 12 09:20 PM
SCORLIVEK WILLIAM PAULSee RemarksNov 12Buy3.3856,454190,815735,829Nov 12 09:18 PM
SCORLIVEK WILLIAM PAULSee RemarksNov 11Buy3.4134,083116,223679,375Nov 12 09:18 PM
SCORLIVEK WILLIAM PAULSee RemarksNov 08Buy3.2034,398110,074645,292Nov 12 09:18 PM
SCORLIVEK WILLIAM PAULSee RemarksNov 07Buy3.18187,645596,711610,894Nov 12 09:18 PM
PBFInversora Carso, S.A. de C.V.Add'l Rep. Persons-see Ex.99-1Nov 08Buy32.68200,1556,540,64517,556,343Nov 12 08:55 PM
ICMBInvestcorp BDC Holdings Ltd10% OwnerNov 12Buy6.818165,55434,038Nov 12 07:15 PM
ICMBInvestcorp BDC Holdings Ltd10% OwnerNov 11Buy6.809006,12433,222Nov 12 07:15 PM
ICMBInvestcorp BDC Holdings Ltd10% OwnerNov 08Buy6.731,70011,43632,322Nov 12 07:15 PM
ICMBInvestcorp BDC Holdings Ltd10% OwnerNov 07Buy6.712001,34230,622Nov 12 07:15 PM
PLTDEXHEIMER BRIAN SDirectorNov 08Buy24.886,124152,37865,460Nov 12 06:57 PM
HHCFlatto Adam R.DirectorNov 08Buy106.941,000106,9403,000Nov 12 06:54 PM
HHCFlatto Adam R.DirectorNov 08Buy107.313,000321,93017,574Nov 12 06:54 PM
HHCSELLERS R SCOTDirectorNov 08Buy107.843,000323,52039,394Nov 12 06:51 PM
MNTXFILIPOV STEVEChief Executive OfficerNov 12Buy5.9915,00089,85081,736Nov 12 06:45 PM
KARHill Mark EDirectorNov 11Buy21.5018,500397,75048,200Nov 12 06:28 PM
QUMUHarbert Discovery Fund, LPDirectorNov 07Buy2.50100,000250,0001,392,522Nov 12 06:21 PM
REZIAarnes Robert BPresident, ADINov 12Buy9.01201808,955Nov 12 06:01 PM
OXYKLESSE WILLIAM RDirectorNov 08Buy39.3112,000471,720113,203Nov 12 05:49 PM
SALMATSINGER EDWARD G IIIChief Executive OfficerNov 08Buy1.456,8389,915122,965Nov 12 05:27 PM
SALMATSINGER EDWARD G IIIChief Executive OfficerNov 07Buy1.458,13711,799116,127Nov 12 05:27 PM
SAFESUGARMAN JAYChairman and CEONov 12Buy34.6380027,70429,764Nov 12 05:27 PM
SAFESUGARMAN JAYChairman and CEONov 11Buy34.082006,81629,764Nov 12 05:27 PM
ARLOMCRAE MATTHEW BLAKECEONov 11Buy2.7336,60099,753319,799Nov 12 05:26 PM
RRTSELLIOTT INTERNATIONAL, L.P.10% OwnerNov 12Buy9.549929,46423,274,884Nov 12 05:25 PM
RRTSELLIOTT INTERNATIONAL, L.P.10% OwnerNov 11Buy9.624704,52123,273,892Nov 12 05:25 PM
RRTSELLIOTT INTERNATIONAL, L.P.10% OwnerNov 08Buy9.605585,35723,273,422Nov 12 05:25 PM
RRTSELLIOTT INTERNATIONAL, L.P.10% OwnerNov 07Buy9.902,24222,19623,272,864Nov 12 05:25 PM
ARLOFAISON RALPH EDirectorNov 11Buy2.8836,000103,680182,725Nov 12 05:24 PM
MGStamatakis Manuel N.DirectorNov 08Buy14.605,00073,000122,718Nov 12 05:18 PM
BCSFButte AmyDirectorNov 12Buy18.992,80053,1722,800Nov 12 05:02 PM
AGOFeldstein Andrew TChief Investment OfficerNov 11Buy47.4812,611598,722329,566Nov 12 05:02 PM
AGOFeldstein Andrew TChief Investment OfficerNov 08Buy48.9312,238598,756316,955Nov 12 05:02 PM
AGOFeldstein Andrew TChief Investment OfficerNov 07Buy48.4012,238592,319304,717Nov 12 05:02 PM
open in screener